Location: Équennes
(49.7375°N, 1.9622°E)
Time: 23:44:27
(UTC+00:00)

Cosmos 1656 - Pass Details

Date: 02 October 2023
Orbit: 797 x 849 km, 71.1° (Epoch: 03 December)

Event Time Altitude Azimuth Distance (km) Brightness Sun altitude
Rises 21:18:43 0° 335° (NNW) 3,316 7.7 -35.0°
Reaches altitude 10° 21:21:30 10° 347° (NNW) 2,386 6.6 -35.3°
Enters shadow 21:23:55 21° 9° (N) 1,744 5.6 -35.6°
